SL-16 R/B

Last updated on Sun Oct 26 2025 00:02:19 GMT+0000 (Coordinated Universal Time)

1 31793U 07029B 25298.52346399 -.00000133 00000+0 -44364-4 0 9991 2 31793 70.9733 96.5072 0002611 263.7914 154.0367 14.14804436946252
UTC large
Height (km)
Speed (km/s)
/
Latitude / Longitude
Inclination (degrees)
Orbital Period (minutes)
Azimuth
Elevation
Range (km)
Doppler Factor

Next 0 passes for location: London (51.5072 / 0.1276)

Sorry there are no passes over London.